Regional Weather Roundup
Issued by NWS Cleveland, OH

Home | Current Version | Previous Version | Graphics & Text | Print | Product List | Glossary On
Versions: 1 2 3 4 5 6 7 8 9 10 11 12 13 14 15 16 17 18 19 20 21 22 23 24 25 26 27 28 29 30 31 32 33 34 35 36 37 38 39 40 41 42 43 44 45 46 47 48 49 50
881
ASUS41 KCLE 290512
RWRCLE
OHIO REGIONAL WEATHER ROUNDUP
NATIONAL WEATHER SERVICE WILMINGTON, OH
100 AM EDT MON MAY 29 2017

NOTE: "FAIR" INDICATES FEW OR NO CLOUDS BELOW 12,000 FEET WITH NO
SIGNIFICANT WEATHER AND/OR OBSTRUCTIONS TO VISIBILITY.

OHZ001>008-015>018-024>027-034-035-043-044-290600-
   NORTHWEST OHIO

CITY           SKY/WX    TMP DP  RH WIND       PRES   REMARKS
DEFIANCE       FAIR      58  56  93 SW5       29.77S
FINDLAY        FAIR      63  57  81 W9        29.77R
TOLEDO EXPRESS FAIR      62  60  93 W12       29.74S
TOLEDO EXEC    FAIR      65  64  97 W10       29.74S
LIMA           FAIR      60  59  96 W9        29.80R
$$

OHZ009>014-019>023-028>033-038-089-290600-
   NORTHEAST OHIO

CITY           SKY/WX    TMP DP  RH WIND       PRES   REMARKS
CLE-HOPKINS    LGT RAIN  65  61  87 S7        29.76F
CLE-LAKEFRONT  LGT RAIN  63  60  90 S13       29.73S
CUY CO. ARPT   NOT AVBL
LORAIN-ELYRIA  LGT RAIN  61  55  81 S8        29.75S
ASHTABULA      CLOUDY    62  61  96 S9        29.74R
AKRON-CANTON   RAIN      62  58  86 SW13      29.79R FOG
WOOSTER        LGT RAIN  60  58  92 VRB3      29.76F
MANSFIELD      FAIR      60  60 100 S8        29.78S
YOUNGSTOWN     LGT RAIN  62  60  93 S6        29.75F
$$

OHZ042-051>053-060>062-070>072-077>081-290600-
  SOUTHWEST OHIO

CITY           SKY/WX    TMP DP  RH WIND       PRES   REMARKS
CINC-COVINGTON FAIR      62  61  96 SW5       29.84F
CINC-LUNKEN    FAIR      64  63  96 S7        29.83F
HAMILTON       FAIR      63  63 100 W5        29.83F
DAYTON         MOCLDY    62  61  96 W9        29.82S
WRIGHT-PAT AFB CLOUDY    63  63 100 SW6       29.81S
DAYTON GENERAL CLOUDY    64  61  90 W6        29.81S
WILMINGTON     FAIR      65  65 100 W8        29.80F
$$

OHZ036-037-039>041-045>050-054>059-063>069-073>076-082>088-290600-
  CENTRAL AND SOUTHEAST OHIO

CITY           SKY/WX    TMP DP  RH WIND       PRES   REMARKS
COLUMBUS       CLOUDY    66  58  75 S5        29.81S
OSU AIRPORT    MOCLDY    64  60  87 S5        29.80F
BOLTON FIELD   RAIN      65  61  84 SW7       29.81F
RICKENBACK AFB LGT RAIN  67  64  91 SW6       29.80F
NEWARK         CLOUDY    65  56  72 W3        29.81R
MARION         CLOUDY    61  59  93 SW8       29.80R
LANCASTER      CLOUDY    69  63  81 SW12      29.82R
ZANESVILLE     LGT RAIN  63  58  83 N6        29.81R
NEW PHILLY     LGT RAIN  62  60  93 W3        29.82R FOG
$$




USA.gov is the U.S. government's official web portal to all federal, state and local government web resources and services.